< VanCam Weather - WU Station History
^^
Station Historical Data
 
Daily Summary for April 25, 2018 Units:  English    Metric   Both
« Previous Day
Next Day »
Daily Weekly Monthly Yearly Custom
  Current: High: Low: Average:
Temperature: 76.8 °F 76.8 °F 46.1 °F 56.1 °F
Dew Point: 47.8 °F 52.0 °F 41.9 °F 44.5 °F
Humidity: 36% 89% 34% 68%
Wind Speed: 2.3mph 7.0mph 0.0mph 1.9mph
Wind Gust: 2.3mph 7.0mph - -
WindWSW - - SSE
Pressure: 30.02 in 30.06 in 29.97 in -
Precipitation: 0.00 in      
Historical Graphs
 
 
Tabular Data for April 25, 2018
Time Temperature Dew Point Pressure Wind Wind Speed Wind Gust Humidity Rainfall Rate (Hourly) solar Conditions
00:03 53.6 °F 42.5 °F 29.97 in NE 2.3 mph 2.3 mph 66% 0.00 in WeatherDisplay:10.37 W/m2 CLR
00:08 53.5 °F 42.4 °F 29.97 in NE 1.2 mph 1.2 mph 66% 0.00 in WeatherDisplay:10.37 W/m2 CLR
00:13 53.2 °F 42.9 °F 29.97 in Calm   0.2 mph 68% 0.00 in WeatherDisplay:10.37 W/m2 CLR
00:18 52.9 °F 43.4 °F 29.97 in Calm     70% 0.00 in WeatherDisplay:10.37 W/m2 CLR
00:23 52.5 °F 42.6 °F 29.98 in Calm     69% 0.00 in WeatherDisplay:10.37 W/m2 CLR
00:28 52.2 °F 43.4 °F 29.98 in NE 1.0 mph 1.0 mph 72% 0.00 in WeatherDisplay:10.37 W/m2 CLR
00:33 51.9 °F 43.2 °F 29.98 in Calm     72% 0.00 in WeatherDisplay:10.37 W/m2 CLR
00:38 51.7 °F 43.3 °F 29.98 in Calm     73% 0.00 in WeatherDisplay:10.37 W/m2 CLR
00:43 51.4 °F 41.9 °F 29.98 in NE 2.3 mph 2.3 mph 70% 0.00 in WeatherDisplay:10.37 W/m2 CLR
00:48 51.3 °F 42.6 °F 29.98 in Calm     72% 0.00 in WeatherDisplay:10.37 W/m2 CLR
00:53 51.1 °F 42.7 °F 29.98 in Calm     73% 0.00 in WeatherDisplay:10.37 W/m2 CLR
00:58 50.9 °F 42.9 °F 29.98 in Calm     74% 0.00 in WeatherDisplay:10.37 W/m2 CLR
01:03 50.6 °F 43.0 °F 29.98 in Calm     75% 0.00 in WeatherDisplay:10.37 W/m2 CLR
01:08 50.3 °F 43.0 °F 29.98 in Calm     76% 0.00 in WeatherDisplay:10.37 W/m2 CLR
01:13 50.0 °F 42.7 °F 29.98 in Calm     76% 0.00 in WeatherDisplay:10.37 W/m2 CLR
01:18 49.7 °F 42.4 °F 29.99 in Calm     76% 0.00 in WeatherDisplay:10.37 W/m2 CLR
01:23 49.6 °F 42.3 °F 29.98 in NE 1.2 mph   76% 0.00 in WeatherDisplay:10.37 W/m2 CLR
01:28 49.5 °F 42.9 °F 29.99 in NE 1.2 mph 1.2 mph 78% 0.00 in WeatherDisplay:10.37 W/m2 CLR
01:33 49.4 °F 42.8 °F 29.99 in Calm     78% 0.00 in WeatherDisplay:10.37 W/m2 CLR
01:38 49.3 °F 42.4 °F 29.98 in Calm     77% 0.00 in WeatherDisplay:10.37 W/m2 CLR
01:43 49.2 °F 42.6 °F 29.98 in Calm     78% 0.00 in WeatherDisplay:10.37 W/m2 CLR
01:48 49.0 °F 42.8 °F 29.98 in NE 2.3 mph 2.3 mph 79% 0.00 in WeatherDisplay:10.37 W/m2 CLR
01:53 48.7 °F 42.1 °F 29.98 in NE 2.0 mph 2.0 mph 78% 0.00 in WeatherDisplay:10.37 W/m2 CLR
01:58 48.6 °F 42.0 °F 29.98 in NE 2.3 mph 2.3 mph 78% 0.00 in WeatherDisplay:10.37 W/m2 CLR
02:03 48.7 °F 42.1 °F 29.98 in NE 2.3 mph 2.3 mph 78% 0.00 in WeatherDisplay:10.37 W/m2 CLR
02:08 48.7 °F 42.1 °F 29.98 in NE 2.3 mph 2.3 mph 78% 0.00 in WeatherDisplay:10.37 W/m2 CLR
02:13 48.7 °F 42.1 °F 29.98 in Calm     78% 0.00 in WeatherDisplay:10.37 W/m2 CLR
02:18 48.6 °F 42.0 °F 29.98 in NE 2.3 mph 2.3 mph 78% 0.00 in WeatherDisplay:10.37 W/m2 CLR
02:23 48.5 °F 42.3 °F 29.98 in NE 2.3 mph 2.3 mph 79% 0.00 in WeatherDisplay:10.37 W/m2 CLR
02:28 48.4 °F 42.2 °F 29.98 in NE 2.3 mph 2.3 mph 79% 0.00 in WeatherDisplay:10.37 W/m2 CLR
02:33 48.4 °F 42.2 °F 29.98 in NE 1.2 mph 1.2 mph 79% 0.00 in WeatherDisplay:10.37 W/m2 CLR
02:38 48.4 °F 42.2 °F 29.98 in Calm     79% 0.00 in WeatherDisplay:10.37 W/m2 CLR
02:43 48.3 °F 42.1 °F 29.98 in NE 1.2 mph 1.2 mph 79% 0.00 in WeatherDisplay:10.37 W/m2 CLR
02:48 48.3 °F 42.4 °F 29.98 in NE 1.2 mph 1.2 mph 80% 0.00 in WeatherDisplay:10.37 W/m2 CLR
02:53 48.3 °F 42.4 °F 29.98 in NE 1.2 mph   80% 0.00 in WeatherDisplay:10.37 W/m2 CLR
02:58 48.2 °F 42.6 °F 29.98 in Calm     81% 0.00 in WeatherDisplay:10.37 W/m2 CLR
03:03 48.2 °F 42.6 °F 29.98 in Calm     81% 0.00 in WeatherDisplay:10.37 W/m2 CLR
03:08 48.1 °F 42.5 °F 29.98 in NE 1.2 mph   81% 0.00 in WeatherDisplay:10.37 W/m2 CLR
03:13 48.0 °F 42.1 °F 29.99 in Calm     80% 0.00 in WeatherDisplay:10.37 W/m2 CLR
03:18 48.1 °F 42.2 °F 29.99 in NE 2.0 mph 2.0 mph 80% 0.00 in WeatherDisplay:10.37 W/m2 CLR
03:23 48.0 °F 42.4 °F 29.99 in NE 2.3 mph 2.3 mph 81% 0.00 in WeatherDisplay:10.37 W/m2 CLR
03:28 47.9 °F 42.3 °F 29.99 in NE 2.3 mph 2.3 mph 81% 0.00 in WeatherDisplay:10.37 W/m2 CLR
03:33 47.9 °F 42.3 °F 29.99 in NE 1.2 mph   81% 0.00 in WeatherDisplay:10.37 W/m2 CLR
03:38 47.9 °F 42.3 °F 29.99 in Calm     81% 0.00 in WeatherDisplay:10.37 W/m2 CLR
03:43 47.9 °F 42.7 °F 29.99 in Calm     82% 0.00 in WeatherDisplay:10.37 W/m2 CLR
03:48 47.9 °F 42.7 °F 29.99 in Calm     82% 0.00 in WeatherDisplay:10.37 W/m2 CLR
03:53 47.8 °F 42.6 °F 29.99 in NE 2.0 mph 2.0 mph 82% 0.00 in WeatherDisplay:10.37 W/m2 CLR
03:58 47.8 °F 42.9 °F 29.99 in Calm     83% 0.00 in WeatherDisplay:10.37 W/m2 CLR
04:03 47.6 °F 42.4 °F 29.99 in Calm     82% 0.00 in WeatherDisplay:10.37 W/m2 CLR
04:08 47.6 °F 42.4 °F 29.99 in NE 2.3 mph 2.3 mph 82% 0.00 in WeatherDisplay:10.37 W/m2 CLR
04:13 47.6 °F 42.4 °F 29.99 in NE 1.2 mph 1.2 mph 82% 0.00 in WeatherDisplay:10.37 W/m2 CLR
04:18 47.5 °F 42.3 °F 29.99 in NE 2.3 mph 2.3 mph 82% 0.00 in WeatherDisplay:10.37 W/m2 CLR
04:23 47.4 °F 42.5 °F 30.00 in Calm     83% 0.00 in WeatherDisplay:10.37 W/m2 CLR
04:28 47.4 °F 42.5 °F 30.00 in NE 2.3 mph 2.3 mph 83% 0.00 in WeatherDisplay:10.37 W/m2 CLR
04:33 47.5 °F 42.6 °F 30.00 in NE 1.2 mph 1.2 mph 83% 0.00 in WeatherDisplay:10.37 W/m2 CLR
04:38 47.4 °F 42.5 °F 30.00 in NE 1.2 mph 1.2 mph 83% 0.00 in WeatherDisplay:10.37 W/m2 CLR
04:43 47.4 °F 42.5 °F 29.99 in NE 2.3 mph 2.3 mph 83% 0.00 in WeatherDisplay:10.37 W/m2 CLR
04:48 47.4 °F 42.5 °F 30.00 in NE 2.3 mph 2.3 mph 83% 0.00 in WeatherDisplay:10.37 W/m2 CLR
04:53 47.4 °F 42.5 °F 30.00 in NE 1.2 mph 1.2 mph 83% 0.00 in WeatherDisplay:10.37 W/m2 CLR
04:58 47.5 °F 42.6 °F 30.00 in NE 2.3 mph 2.3 mph 83% 0.00 in WeatherDisplay:10.37 W/m2 CLR
05:03 47.4 °F 42.5 °F 30.00 in NE 1.2 mph 1.2 mph 83% 0.00 in WeatherDisplay:10.37 W/m2 CLR
05:08 47.3 °F 42.7 °F 30.00 in Calm     84% 0.00 in WeatherDisplay:10.37 W/m2 CLR
05:13 47.2 °F 42.6 °F 30.00 in Calm     84% 0.00 in WeatherDisplay:10.37 W/m2 CLR
05:18 47.1 °F 42.5 °F 30.00 in NE 1.2 mph 1.2 mph 84% 0.00 in WeatherDisplay:10.37 W/m2 CLR
05:23 46.9 °F 42.6 °F 30.00 in Calm     85% 0.00 in WeatherDisplay:10.37 W/m2 CLR
05:28 46.9 °F 42.6 °F 30.00 in Calm     85% 0.00 in WeatherDisplay:10.37 W/m2 CLR
05:33 46.9 °F 42.6 °F 30.00 in Calm     85% 0.00 in WeatherDisplay:10.37 W/m2 CLR
05:38 46.8 °F 42.5 °F 30.00 in Calm     85% 0.00 in WeatherDisplay:10.37 W/m2 CLR
05:43 46.7 °F 42.4 °F 30.00 in Calm     85% 0.00 in WeatherDisplay:10.37 W/m2 CLR
05:48 46.7 °F 42.4 °F 30.00 in Calm     85% 0.00 in WeatherDisplay:10.37 W/m2 CLR
05:53 46.5 °F 42.5 °F 30.00 in Calm     86% 0.00 in WeatherDisplay:10.37 W/m2 CLR
05:58 46.5 °F 42.5 °F 30.01 in Calm     86% 0.00 in WeatherDisplay:10.37 W/m2 CLR
06:03 46.5 °F 42.5 °F 30.01 in Calm     86% 0.00 in WeatherDisplay:10.37 W/m2 CLR
06:08 46.4 °F 42.7 °F 30.01 in Calm     87% 0.00 in WeatherDisplay:10.37 W/m2 CLR
06:13 46.3 °F 42.6 °F 30.01 in Calm     87% 0.00 in WeatherDisplay:10.37 W/m2 CLR
06:18 46.2 °F 42.8 °F 30.01 in Calm     88% 0.00 in WeatherDisplay:10.37 W/m2 CLR
06:23 46.1 °F 42.7 °F 30.02 in Calm     88% 0.00 in WeatherDisplay:10.37 W/m2 CLR
06:28 46.2 °F 42.8 °F 30.02 in NE 1.2 mph   88% 0.00 in WeatherDisplay:10.37 W/m2 CLR
06:33 46.3 °F 42.6 °F 30.02 in NE 1.2 mph   87% 0.00 in WeatherDisplay:10.37 W/m2 CLR
06:38 46.4 °F 42.7 °F 30.02 in Calm     87% 0.00 in WeatherDisplay:10.37 W/m2 CLR
06:43 46.5 °F 42.8 °F 30.03 in Calm     87% 0.00 in WeatherDisplay:10.37 W/m2 CLR
06:48 46.5 °F 43.1 °F 30.03 in Calm     88% 0.00 in WeatherDisplay:10.37 W/m2 CLR
06:53 46.5 °F 42.8 °F 30.03 in Calm     87% 0.00 in WeatherDisplay:10.37 W/m2 CLR
06:58 46.6 °F 42.9 °F 30.03 in NE 1.2 mph 1.2 mph 87% 0.00 in WeatherDisplay:10.37 W/m2 CLR
07:03 46.7 °F 43.0 °F 30.03 in NE 1.2 mph 1.2 mph 87% 0.00 in WeatherDisplay:10.37 W/m2 CLR
07:08 46.7 °F 43.0 °F 30.03 in NE 1.2 mph 1.2 mph 87% 0.00 in WeatherDisplay:10.37 W/m2 CLR
07:13 46.8 °F 43.4 °F 30.03 in NE 1.2 mph 1.2 mph 88% 0.00 in WeatherDisplay:10.37 W/m2 CLR
07:18 46.8 °F 43.4 °F 30.03 in NE 1.2 mph 1.2 mph 88% 0.00 in WeatherDisplay:10.37 W/m2 CLR
07:23 47.0 °F 43.6 °F 30.03 in Calm     88% 0.00 in WeatherDisplay:10.37 W/m2 CLR
07:28 47.4 °F 44.3 °F 30.03 in Calm     89% 0.00 in WeatherDisplay:10.37 W/m2 CLR
07:33 48.1 °F 45.0 °F 30.03 in NE 1.2 mph 1.2 mph 89% 0.00 in WeatherDisplay:10.37 W/m2 CLR
07:38 48.9 °F 44.9 °F 30.04 in NE 2.3 mph 2.3 mph 86% 0.00 in WeatherDisplay:10.37 W/m2 CLR
07:43 49.9 °F 45.9 °F 30.04 in NE 2.3 mph 2.3 mph 86% 0.00 in WeatherDisplay:10.37 W/m2 CLR
07:48 51.2 °F 46.8 °F 30.04 in NE 2.3 mph 2.3 mph 85% 0.00 in WeatherDisplay:10.37 W/m2 CLR
07:53 52.2 °F 46.5 °F 30.04 in NE 2.3 mph 2.3 mph 81% 0.00 in WeatherDisplay:10.37 W/m2 CLR
07:58 53.1 °F 47.4 °F 30.04 in Calm     81% 0.00 in WeatherDisplay:10.37 W/m2 CLR
08:03 54.4 °F 48.4 °F 30.04 in NE 1.2 mph 1.2 mph 80% 0.00 in WeatherDisplay:10.37 W/m2 CLR
08:08 55.5 °F 47.7 °F 30.04 in Calm     75% 0.00 in WeatherDisplay:10.37 W/m2 CLR
08:13 56.6 °F 47.7 °F 30.04 in NE 2.3 mph 2.3 mph 72% 0.00 in WeatherDisplay:10.37 W/m2 CLR
08:18 57.6 °F 47.5 °F 30.04 in NE 2.3 mph 2.3 mph 69% 0.00 in WeatherDisplay:10.37 W/m2 CLR
08:23 58.4 °F 49.0 °F 30.04 in NE 1.2 mph 1.2 mph 71% 0.00 in WeatherDisplay:10.37 W/m2 CLR
08:28 59.4 °F 48.0 °F 30.04 in NE 1.2 mph 1.2 mph 66% 0.00 in WeatherDisplay:10.37 W/m2 CLR
08:33 60.0 °F 47.4 °F 30.05 in WNW 3.5 mph 3.5 mph 63% 0.00 in WeatherDisplay:10.37 W/m2 CLR
08:35 60.0 °F 46.1 °F 30.05 in NW 3.5 mph 3.5 mph 60% 0.00 in WeatherDisplay:10.37 W/m2 CLR
08:40 59.9 °F 45.5 °F 30.05 in NW 2.3 mph 2.3 mph 59% 0.00 in WeatherDisplay:10.37 W/m2 CLR
08:45 60.1 °F 43.9 °F 30.05 in West 3.5 mph 3.5 mph 55% 0.00 in WeatherDisplay:10.37 W/m2 CLR
08:50 60.1 °F 44.8 °F 30.05 in WSW 2.0 mph 6.0 mph 57% 0.00 in WeatherDisplay:10.37 W/m2 CLR
08:55 60.2 °F 46.7 °F 30.05 in WNW 2.3 mph 2.3 mph 61% 0.00 in WeatherDisplay:10.37 W/m2 CLR
09:00 60.3 °F 45.0 °F 30.05 in SW 3.5 mph 3.5 mph 57% 0.00 in WeatherDisplay:10.37 W/m2 CLR
09:05 60.6 °F 45.3 °F 30.05 in SSW 3.5 mph 3.5 mph 57% 0.00 in WeatherDisplay:10.37 W/m2 CLR
09:10 60.8 °F 45.5 °F 30.05 in WNW 3.5 mph 3.5 mph 57% 0.00 in WeatherDisplay:10.37 W/m2 CLR
09:15 60.9 °F 45.1 °F 30.05 in WNW 3.5 mph 3.5 mph 56% 0.00 in WeatherDisplay:10.37 W/m2 CLR
09:20 60.7 °F 45.4 °F 30.05 in WNW 2.3 mph 2.3 mph 57% 0.00 in WeatherDisplay:10.37 W/m2 CLR
09:25 61.1 °F 46.2 °F 30.05 in NW 2.3 mph 2.3 mph 58% 0.00 in WeatherDisplay:10.37 W/m2 CLR
09:30 61.5 °F 45.2 °F 30.05 in SSW 3.5 mph 3.5 mph 55% 0.00 in WeatherDisplay:10.37 W/m2 CLR
09:35 61.9 °F 46.5 °F 30.05 in SSW 3.5 mph 3.5 mph 57% 0.00 in WeatherDisplay:10.37 W/m2 CLR
09:40 62.2 °F 45.8 °F 30.05 in NW 3.5 mph 3.5 mph 55% 0.00 in WeatherDisplay:10.37 W/m2 CLR
09:45 62.5 °F 46.6 °F 30.05 in WSW 3.5 mph 3.5 mph 56% 0.00 in WeatherDisplay:10.37 W/m2 CLR
09:50 63.2 °F 45.8 °F 30.05 in South 3.5 mph 3.5 mph 53% 0.00 in WeatherDisplay:10.37 W/m2 CLR
09:55 63.6 °F 46.1 °F 30.05 in South 2.3 mph 2.3 mph 53% 0.00 in WeatherDisplay:10.37 W/m2 CLR
10:00 63.8 °F 45.8 °F 30.05 in SSW 3.5 mph 3.5 mph 52% 0.00 in WeatherDisplay:10.37 W/m2 CLR
10:05 64.3 °F 46.3 °F 30.05 in West 3.0 mph 3.0 mph 52% 0.00 in WeatherDisplay:10.37 W/m2 CLR
10:10 64.5 °F 46.5 °F 30.05 in NW 3.5 mph 3.5 mph 52% 0.00 in WeatherDisplay:10.37 W/m2 CLR
10:15 64.6 °F 48.1 °F 30.05 in West 3.5 mph 3.5 mph 55% 0.00 in WeatherDisplay:10.37 W/m2 CLR
10:20 64.9 °F 46.3 °F 30.05 in West 3.5 mph 3.5 mph 51% 0.00 in WeatherDisplay:10.37 W/m2 CLR
10:25 65.3 °F 45.6 °F 30.05 in NW 3.5 mph 3.5 mph 49% 0.00 in WeatherDisplay:10.37 W/m2 CLR
10:30 65.4 °F 44.6 °F 30.06 in NW 2.3 mph 2.3 mph 47% 0.00 in WeatherDisplay:10.37 W/m2 CLR
10:35 65.9 °F 45.1 °F 30.06 in SSW 3.5 mph 3.5 mph 47% 0.00 in WeatherDisplay:10.37 W/m2 CLR
10:40 66.6 °F 46.8 °F 30.06 in NW 3.5 mph 3.5 mph 49% 0.00 in WeatherDisplay:10.37 W/m2 CLR
10:45 66.9 °F 46.6 °F 30.06 in SSW 3.5 mph 3.5 mph 48% 0.00 in WeatherDisplay:10.37 W/m2 CLR
10:50 67.4 °F 47.6 °F 30.06 in West 3.0 mph 3.0 mph 49% 0.00 in WeatherDisplay:10.37 W/m2 CLR
10:55 67.9 °F 47.5 °F 30.05 in WNW 3.5 mph 3.5 mph 48% 0.00 in WeatherDisplay:10.37 W/m2 CLR
11:00 68.0 °F 45.9 °F 30.06 in South 3.5 mph 3.5 mph 45% 0.00 in WeatherDisplay:10.37 W/m2 CLR
11:05 68.4 °F 47.9 °F 30.06 in SW 3.5 mph 3.5 mph 48% 0.00 in WeatherDisplay:10.37 W/m2 CLR
11:10 68.9 °F 46.7 °F 30.06 in WSW 1.2 mph 2.0 mph 45% 0.00 in WeatherDisplay:10.37 W/m2 CLR
11:15 69.3 °F 45.8 °F 30.06 in WNW 3.5 mph 3.5 mph 43% 0.00 in WeatherDisplay:10.37 W/m2 CLR
11:20 69.5 °F 44.8 °F 30.06 in SW 2.3 mph 2.3 mph 41% 0.00 in WeatherDisplay:10.37 W/m2 CLR
11:25 69.9 °F 47.0 °F 30.05 in SW 3.5 mph 3.5 mph 44% 0.00 in WeatherDisplay:10.37 W/m2 CLR
11:30 70.2 °F 46.6 °F 30.05 in SE 3.5 mph 3.5 mph 43% 0.00 in WeatherDisplay:10.37 W/m2 CLR
11:35 70.5 °F 46.9 °F 30.05 in SSW 3.5 mph 3.5 mph 43% 0.00 in WeatherDisplay:10.37 W/m2 CLR
11:40 70.8 °F 47.2 °F 30.05 in NW 3.5 mph 3.5 mph 43% 0.00 in WeatherDisplay:10.37 W/m2 CLR
11:45 71.0 °F 52.0 °F 30.05 in NW 4.0 mph 4.0 mph 51% 0.00 in WeatherDisplay:10.37 W/m2 CLR
11:50 71.2 °F 46.3 °F 30.05 in SW 3.5 mph 3.9 mph 41% 0.00 in WeatherDisplay:10.37 W/m2 CLR
11:55 71.4 °F 49.5 °F 30.05 in South 3.5 mph 3.5 mph 46% 0.00 in WeatherDisplay:10.37 W/m2 CLR
12:00 71.8 °F 47.5 °F 30.05 in NNW 3.5 mph 3.5 mph 42% 0.00 in WeatherDisplay:10.37 W/m2 CLR
12:05 72.1 °F 45.8 °F 30.04 in WSW 3.5 mph 3.5 mph 39% 0.00 in WeatherDisplay:10.37 W/m2 CLR
12:10 72.4 °F 46.0 °F 30.04 in South 5.8 mph 5.8 mph 39% 0.00 in WeatherDisplay:10.37 W/m2 CLR
12:15 72.8 °F 48.4 °F 30.04 in SW 3.5 mph 3.5 mph 42% 0.00 in WeatherDisplay:10.37 W/m2 CLR
12:20 73.0 °F 45.2 °F 30.04 in SSW 5.8 mph 5.8 mph 37% 0.00 in WeatherDisplay:10.37 W/m2 CLR
12:25 73.2 °F 50.6 °F 30.04 in SSW 3.5 mph 3.5 mph 45% 0.00 in WeatherDisplay:10.37 W/m2 CLR
12:30 73.8 °F 49.3 °F 30.04 in South 4.0 mph 4.0 mph 42% 0.00 in WeatherDisplay:10.37 W/m2 CLR
12:34 74.3 °F 46.3 °F 30.03 in South 6.9 mph 6.9 mph 37% 0.00 in WeatherDisplay:10.37 W/m2 CLR
12:39 74.8 °F 47.5 °F 30.03 in SW 2.3 mph 2.3 mph 38% 0.00 in WeatherDisplay:10.37 W/m2 CLR
12:44 75.3 °F 48.6 °F 30.03 in WSW 3.5 mph 3.5 mph 39% 0.00 in WeatherDisplay:10.37 W/m2 CLR
12:49 75.4 °F 48.7 °F 30.03 in WSW 3.5 mph 3.5 mph 39% 0.00 in WeatherDisplay:10.37 W/m2 CLR
12:54 75.6 °F 46.0 °F 30.02 in South 3.5 mph 3.5 mph 35% 0.00 in WeatherDisplay:10.37 W/m2 CLR
12:59 75.9 °F 45.5 °F 30.02 in SSW 5.8 mph 5.8 mph 34% 0.00 in WeatherDisplay:10.37 W/m2 CLR
13:04 75.9 °F 47.0 °F 30.02 in South 2.3 mph 2.5 mph 36% 0.00 in WeatherDisplay:10.37 W/m2 CLR
13:09 76.2 °F 46.5 °F 30.02 in SSE 5.0 mph 5.0 mph 35% 0.00 in WeatherDisplay:10.37 W/m2 CLR
13:14 76.4 °F 45.9 °F 30.02 in South 7.0 mph 7.0 mph 34% 0.00 in WeatherDisplay:10.37 W/m2 CLR
13:19 76.4 °F 51.6 °F 30.02 in West 3.5 mph 3.5 mph 42% 0.00 in WeatherDisplay:10.37 W/m2 CLR
13:24 76.6 °F 48.4 °F 30.02 in NW 3.5 mph 3.5 mph 37% 0.00 in WeatherDisplay:10.37 W/m2 CLR
13:29 76.8 °F 47.8 °F 30.02 in WSW 2.3 mph 2.3 mph 36% 0.00 in WeatherDisplay:10.37 W/m2 CLR
VanCam Weather
Compliments of Weather Underground - 4 mb